Location: *
(44.9308°N, 123.0197°W)
Time: 13:20:36
(UTC+00:00)

Cosmos 1300 Rocket - Visible Passes

Search period start: 06 August 2020 00:00
Search period end: 16 August 2020 00:00
Orbit: 601 x 627 km, 82.5° (Epoch: 05 August)

Date Brightness Start Highest point End Pass type
(mag) Time Alt. Az. Time Alt. Az. Time Alt. Az.
06 Aug 5.1 08:47:19 28° ENE 08:47:19 28° ENE 08:50:15 10° NNE visible
06 Aug 5.0 10:24:23 25° WNW 10:24:23 25° WNW 10:27:48 10° NNW visible
07 Aug 4.5 09:03:09 43° NE 09:03:09 43° NE 09:06:22 10° NNE visible
07 Aug 5.6 10:40:13 15° WNW 10:40:16 15° WNW 10:42:46 10° NNW visible
08 Aug 4.3 09:18:58 51° N 09:18:58 51° N 09:22:15 10° N visible
09 Aug 6.0 07:57:44 14° ENE 07:57:44 14° ENE 07:59:04 10° NE visible
09 Aug 4.6 09:34:47 38° NW 09:34:47 38° NW 09:37:56 10° N visible
10 Aug 5.5 08:13:32 22° NE 08:13:32 22° NE 08:15:39 10° NNE visible
10 Aug 5.2 09:50:35 25° NW 09:50:35 25° NW 09:53:23 10° NNW visible
11 Aug 5.1 08:29:19 31° NE 08:29:19 31° NE 08:31:49 10° NNE visible
11 Aug 5.7 10:06:22 16° WNW 10:06:22 16° WNW 10:08:27 10° NNW visible
12 Aug 4.9 08:45:06 37° N 08:45:06 37° N 08:47:45 10° N visible
13 Aug 6.2 07:23:49 12° ENE 07:23:49 12° ENE 07:24:22 10° NE visible
13 Aug 5.1 09:00:52 32° NNW 09:00:52 32° NNW 09:03:28 10° N visible
14 Aug 5.8 07:39:35 18° NE 07:39:35 18° NE 07:41:04 10° NNE visible
14 Aug 5.4 09:16:38 24° NW 09:16:38 24° NW 09:18:58 10° NNW visible
15 Aug 5.5 07:55:20 24° NE 07:55:20 24° NE 07:57:17 10° NNE visible
15 Aug 5.8 09:32:23 16° NW 09:32:23 16° NW 09:34:07 10° NNW visible
